Change the Weather History Date:

Sunday, October 28, 2012

  Actual Average (KRBD) Record (KRBD)
Temperature  
Mean Temperature 46 °F -  
Max Temperature 60 °F 71 °F 84 °F (2004)
Min Temperature 33 °F 53 °F 37 °F (2008)
Degree Days  
Heating Degree Days 18    
Moisture  
Dew Point 28 °F    
Average Humidity 53    
Maximum Humidity 93    
Minimum Humidity 23    
Precipitation  
Precipitation 0.00 in - - ()
Sea Level Pressure  
Sea Level Pressure 30.25 in    
Wind  
Wind Speed 6 mph (North)    
Max Wind Speed 13 mph    
Max Gust Speed 25 mph    
Visibility 10 miles    
Events      
Averages and records for this station are not official NWS values.
T = Trace of Precipitation, MM = Missing Value Source: NWS Daily Summary

Daily Weather History Graph

Daily Weather History Graph

Search for Another Location

Airport or City:

Trip Planner

Search our weather history database for the weather conditions in past years. The results will help you decide how hot, cold, wet, or windy it might be!

Date:

Astronomy

Oct. 28, 2012 Rise Set
Actual Time 7:42 AM CDT 6:40 PM CDT
Civil Twilight 7:16 AM CDT 7:05 PM CDT
Nautical Twilight 6:47 AM CDT 7:34 PM CDT
Astronomical Twilight 6:19 AM CDT 8:03 PM CDT
Moon 5:58 PM CDT (10/28) 6:37 AM CDT (10/28)
Length of Visible Light 11h 48m
Length of Day
10h 58m
Waxing Gibbous, 99% of the Moon is Illuminated
Oct 28
Waxing Gibbous
Oct 29
Full
Nov 6
Last Quarter
Nov 13
New
Nov 20
First Quarter

Hourly Weather History & Observations

Time (CDT) Temp. Windchill Dew Point Humidity Pressure Visibility Wind Dir Wind Speed Gust Speed Precip Events Conditions
12:15 AM 41.0 °F 38.0 °F 28.4 °F 61% 30.25 in 10.0 mi NNW 4.6 mph - N/A   Clear
12:55 AM 41.0 °F 36.4 °F 28.4 °F 61% 30.25 in 10.0 mi North 6.9 mph - N/A   Clear
1:15 AM 41.0 °F 36.4 °F 28.4 °F 61% 30.25 in 10.0 mi North 6.9 mph - N/A   Clear
1:35 AM 41.0 °F 35.8 °F 28.4 °F 61% 30.25 in 10.0 mi North 8.1 mph - N/A   Clear
1:55 AM 41.0 °F 37.1 °F 28.4 °F 61% 30.25 in 10.0 mi North 5.8 mph - N/A   Clear
2:15 AM 37.4 °F 33.8 °F 30.2 °F 75% 30.25 in 10.0 mi NNW 4.6 mph - N/A   Clear
2:35 AM 37.4 °F 33.8 °F 30.2 °F 75% 30.24 in 10.0 mi NNW 4.6 mph - N/A   Clear
2:55 AM 37.4 °F 32.8 °F 30.2 °F 75% 30.24 in 10.0 mi NNW 5.8 mph - N/A   Clear
3:15 AM 37.4 °F 32.1 °F 30.2 °F 75% 30.25 in 10.0 mi North 6.9 mph - N/A   Clear
3:35 AM 37.4 °F 32.1 °F 30.2 °F 75% 30.25 in 10.0 mi North 6.9 mph - N/A   Clear
3:55 AM 37.4 °F 33.8 °F 30.2 °F 75% 30.25 in 10.0 mi North 4.6 mph - N/A   Clear
4:15 AM 35.6 °F 29.9 °F 30.2 °F 81% 30.25 in 10.0 mi North 6.9 mph - N/A   Clear
4:35 AM 35.6 °F 30.7 °F 30.2 °F 81% 30.24 in 10.0 mi North 5.8 mph - N/A   Clear
4:55 AM 35.6 °F 29.9 °F 30.2 °F 81% 30.24 in 10.0 mi North 6.9 mph - N/A   Clear
5:15 AM 37.4 °F 32.1 °F 30.2 °F 75% 30.25 in 10.0 mi North 6.9 mph - N/A   Clear
5:35 AM 37.4 °F 32.1 °F 30.2 °F 75% 30.25 in 10.0 mi North 6.9 mph - N/A   Clear
5:55 AM 37.4 °F 31.4 °F 30.2 °F 75% 30.25 in 10.0 mi North 8.1 mph - N/A   Clear
6:15 AM 35.6 °F 29.9 °F 30.2 °F 81% 30.25 in 10.0 mi NNW 6.9 mph - N/A   Clear
6:35 AM 35.6 °F 30.7 °F 30.2 °F 81% 30.26 in 10.0 mi NNW 5.8 mph - N/A   Clear
6:55 AM 35.6 °F 30.7 °F 30.2 °F 81% 30.26 in 10.0 mi NNW 5.8 mph - N/A   Clear
7:15 AM 33.8 °F 29.6 °F 30.2 °F 87% 30.26 in 10.0 mi NNW 4.6 mph - N/A   Clear
7:35 AM 33.8 °F 29.6 °F 30.2 °F 87% 30.27 in 10.0 mi NW 4.6 mph - N/A   Clear
7:55 AM 33.8 °F 29.6 °F 32.0 °F 93% 30.28 in 10.0 mi NW 4.6 mph - N/A   Clear
8:15 AM 35.6 °F 30.7 °F 32.0 °F 87% 30.29 in 10.0 mi NW 5.8 mph - N/A   Clear
8:35 AM 37.4 °F 33.8 °F 32.0 °F 81% 30.29 in 10.0 mi NW 4.6 mph - N/A   Clear
8:55 AM 41.0 °F 36.4 °F 32.0 °F 70% 30.30 in 10.0 mi NW 6.9 mph - N/A   Clear
9:15 AM 42.8 °F 39.3 °F 33.8 °F 70% 30.31 in 10.0 mi NW 5.8 mph - N/A   Clear
9:55 AM 48.2 °F - 32.0 °F 54% 30.30 in 10.0 mi North 9.2 mph - N/A   Clear
10:15 AM 50.0 °F - 30.2 °F 47% 30.31 in 10.0 mi North 6.9 mph - N/A   Clear
10:35 AM 51.8 °F - 28.4 °F 41% 30.31 in 10.0 mi North 8.1 mph - N/A   Clear
10:55 AM 53.6 °F - 28.4 °F 38% 30.30 in 10.0 mi North 10.4 mph - N/A   Clear
11:15 AM 53.6 °F - 26.6 °F 35% 30.30 in 10.0 mi NNE 9.2 mph - N/A   Clear
11:35 AM 55.4 °F - 26.6 °F 33% 30.30 in 10.0 mi North 12.7 mph 18.4 mph N/A   Clear
12:15 PM 55.4 °F - 26.6 °F 33% 30.29 in 10.0 mi North 11.5 mph 16.1 mph N/A   Clear
12:35 PM 57.2 °F - 24.8 °F 29% 30.29 in 10.0 mi NNE 9.2 mph - N/A   Clear
12:55 PM 57.2 °F - 24.8 °F 29% 30.28 in 10.0 mi North 8.1 mph - N/A   Clear
1:15 PM 59.0 °F - 23.0 °F 25% 30.27 in 10.0 mi NNE 4.6 mph 11.5 mph N/A   Clear
1:35 PM 59.0 °F - 24.8 °F 27% 30.27 in 10.0 mi North 9.2 mph - N/A   Clear
1:55 PM 59.0 °F - 23.0 °F 25% 30.26 in 10.0 mi NNE 10.4 mph 16.1 mph N/A   Clear
2:15 PM 60.8 °F - 23.0 °F 23% 30.25 in 10.0 mi NNE 10.4 mph 16.1 mph N/A   Clear
2:35 PM 60.8 °F - 24.8 °F 25% 30.24 in 10.0 mi NNE 9.2 mph - N/A   Clear
2:55 PM 60.8 °F - 23.0 °F 23% 30.23 in 10.0 mi North 9.2 mph 25.3 mph N/A   Clear
3:15 PM 60.8 °F - 24.8 °F 25% 30.22 in 10.0 mi NNE 10.4 mph - N/A   Clear
3:35 PM 60.8 °F - 24.8 °F 25% 30.22 in 10.0 mi NNW 11.5 mph - N/A   Clear
3:55 PM 60.8 °F - 23.0 °F 23% 30.22 in 10.0 mi North 5.8 mph - N/A   Clear
4:15 PM 60.8 °F - 23.0 °F 23% 30.21 in 10.0 mi North 3.5 mph - N/A   Clear
4:35 PM 60.8 °F - 23.0 °F 23% 30.21 in 10.0 mi NNE 8.1 mph - N/A   Clear
4:55 PM 60.8 °F - 23.0 °F 23% 30.20 in 10.0 mi North 5.8 mph - N/A   Clear
5:15 PM 60.8 °F - 23.0 °F 23% 30.20 in 10.0 mi ENE 4.6 mph - N/A   Clear
5:35 PM 60.8 °F - 23.0 °F 23% 30.20 in 10.0 mi ENE 4.6 mph - N/A   Clear
5:55 PM 59.0 °F - 23.0 °F 25% 30.20 in 10.0 mi NE 4.6 mph - N/A   Clear
6:15 PM 57.2 °F - 24.8 °F 29% 30.20 in 10.0 mi NE 3.5 mph - N/A   Clear
6:55 PM 53.6 °F - 26.6 °F 35% 30.21 in 10.0 mi NE 3.5 mph - N/A   Clear
7:15 PM 51.8 °F - 26.6 °F 38% 30.21 in 10.0 mi Calm Calm - N/A   Clear
7:35 PM 50.0 °F - 26.6 °F 40% 30.22 in 10.0 mi NE 3.5 mph - N/A   Clear
7:55 PM 50.0 °F - 26.6 °F 40% 30.22 in 10.0 mi NE 3.5 mph - N/A   Clear
8:15 PM 51.8 °F - 26.6 °F 38% 30.22 in 10.0 mi Calm Calm - N/A   Clear
8:55 PM 44.6 °F - 26.6 °F 49% 30.23 in 10.0 mi Calm Calm - N/A   Clear
9:15 PM 42.8 °F - 30.2 °F 61% 30.23 in 10.0 mi Calm Calm - N/A   Clear
9:35 PM 42.8 °F - 30.2 °F 61% 30.23 in 10.0 mi Calm Calm - N/A   Clear
9:55 PM 42.8 °F - 30.2 °F 61% 30.24 in 10.0 mi Calm Calm - N/A   Clear
10:15 PM 42.8 °F - 32.0 °F 66% 30.24 in 10.0 mi Calm Calm - N/A   Clear
10:35 PM 42.8 °F - 32.0 °F 66% 30.25 in 10.0 mi Calm Calm - N/A   Clear
10:55 PM 42.8 °F - 30.2 °F 61% 30.25 in 10.0 mi Calm Calm - N/A   Clear
11:15 PM 42.8 °F - 26.6 °F 53% 30.25 in 10.0 mi Calm Calm - N/A   Clear
11:55 PM 41.0 °F - 26.6 °F 57% 30.26 in 10.0 mi Calm Calm - N/A   Clear